Weather History for Austin, TX

Change the Weather History Date:

Monday, March 17, 2014

  Actual Average Record
Temperature  
Mean Temperature 55 °F 62 °F  
Max Temperature 68 °F 73 °F 89 °F (1972)
Min Temperature 41 °F 52 °F 30 °F (1913)
Degree Days  
Heating Degree Days 10 5  
Month to date heating degree days 182 110  
Since 1 July heating degree days 1678 1447  
Cooling Degree Days 0 2  
Month to date cooling degree days 11 24  
Year to date cooling degree days 52 51  
Growing Degree Days 4 (Base 50)    
Moisture  
Dew Point 26 °F    
Average Humidity 36    
Maximum Humidity 53    
Minimum Humidity 18    
Precipitation  
Precipitation 0.00 in 0.09 in 1.98 in (1941)
Month to date precipitation 1.26 1.52  
Year to date precipitation 2.09 5.76  
Snow  
Snow 0.00 in - - ()
Month to date snowfall T  
Since 1 July snowfall 0.2  
Snow Depth 0.00 in    
Sea Level Pressure  
Sea Level Pressure 29.94 in    
Wind  
Wind Speed 6 mph (NW)    
Max Wind Speed 16 mph    
Max Gust Speed 26 mph    
Visibility 10 miles    
Events      
T = Trace of Precipitation, MM = Missing Value Source: NWS Daily Summary

Daily Weather History Graph

Daily Weather History Graph

Search for Another Location

Airport:

Trip Planner

Search our weather history database for the weather conditions in past years. The results will help you decide how hot, cold, wet, or windy it might be!

Date:

Astronomy

Mar. 17, 2014 Rise Set
Actual Time 7:38 AM CDT 7:40 PM CDT
Civil Twilight 7:14 AM CDT 8:04 PM CDT
Nautical Twilight 6:46 AM CDT 8:32 PM CDT
Astronomical Twilight 6:18 AM CDT 9:00 PM CDT
Moon 8:51 PM CDT (3/17) 8:00 AM CDT (3/17)
Length of Visible Light 12h 50m
Length of Day
12h 02m
Full, 99% of the Moon is Illuminated
Mar 17
Full
Mar 23
Last Quarter
Mar 30
New
Apr 7
First Quarter
Apr 15
Full

Hourly Weather History & Observations

Time (CDT) Temp. Windchill Dew Point Humidity Pressure Visibility Wind Dir Wind Speed Gust Speed Precip Events Conditions
12:51 AM 48.0 °F - 30.9 °F 52% 30.06 in 10.0 mi North 12.7 mph 29.9 mph N/A   Overcast
1:51 AM 46.9 °F - 30.0 °F 52% 30.06 in 10.0 mi North 9.2 mph - N/A   Overcast
2:51 AM 46.9 °F - 28.9 °F 50% 30.06 in 10.0 mi NNW 13.8 mph 21.9 mph N/A   Overcast
3:51 AM 46.9 °F - 26.1 °F 44% 30.03 in 10.0 mi NNW 10.4 mph 16.1 mph N/A   Overcast
4:51 AM 45.0 °F 41.8 °F 26.1 °F 48% 30.02 in 10.0 mi NNW 5.8 mph - N/A   Clear
5:51 AM 44.1 °F 40.1 °F 27.0 °F 51% 30.02 in 10.0 mi NNW 6.9 mph - N/A   Clear
6:51 AM 42.1 °F 40.2 °F 26.1 °F 53% 30.03 in 10.0 mi NW 3.5 mph - N/A   Clear
7:51 AM 41.0 °F 39.0 °F 25.0 °F 53% 30.04 in 10.0 mi NW 3.5 mph - N/A   Clear
8:51 AM 44.1 °F 39.5 °F 25.0 °F 47% 30.05 in 10.0 mi NNW 8.1 mph - N/A   Clear
9:51 AM 48.9 °F - 24.1 °F 38% 30.06 in 10.0 mi Variable 4.6 mph - N/A   Clear
10:51 AM 52.0 °F - 21.9 °F 31% 30.06 in 10.0 mi North 10.4 mph - N/A   Clear
11:51 AM 55.9 °F - 24.1 °F 29% 30.04 in 10.0 mi North 5.8 mph - N/A   Clear
12:51 PM 57.9 °F - 19.9 °F 23% 30.01 in 10.0 mi Calm Calm - N/A   Clear
1:51 PM 62.1 °F - 23.0 °F 22% 29.96 in 10.0 mi NW 8.1 mph - N/A   Clear
2:51 PM 64.0 °F - 25.0 °F 23% 29.91 in 10.0 mi Calm Calm - N/A   Clear
3:51 PM 64.9 °F - 23.0 °F 20% 29.87 in 10.0 mi Calm Calm - N/A   Clear
4:51 PM 66.9 °F - 24.1 °F 20% 29.83 in 10.0 mi Calm Calm - N/A   Clear
5:51 PM 66.9 °F - 21.9 °F 18% 29.81 in 10.0 mi SSW 3.5 mph - N/A   Clear
6:51 PM 64.0 °F - 24.1 °F 22% 29.80 in 10.0 mi SSE 5.8 mph - N/A   Clear
7:51 PM 61.0 °F - 27.0 °F 27% 29.79 in 10.0 mi SSE 5.8 mph - N/A   Clear
8:51 PM 59.0 °F - 28.9 °F 32% 29.79 in 10.0 mi SSE 6.9 mph - N/A   Clear
9:51 PM 57.0 °F - 28.9 °F 34% 29.79 in 10.0 mi South 6.9 mph - N/A   Clear
10:51 PM 55.9 °F - 30.0 °F 37% 29.78 in 10.0 mi South 5.8 mph - N/A   Clear
11:51 PM 53.1 °F - 30.9 °F 43% 29.78 in 10.0 mi South 6.9 mph - N/A   Clear